Temp
46 43 40 47 46 45 42 40 39 43 51 44 48 48 51 55 55 55 58 60 61 61 65 64 62 61 56 54 54 54 52 54 52 51 49 48 47 48 48 49 49 47 49 46
42 38 47 46 44 43 41 38 39 44 48 43 44 46 53 55 56 58 58 59 60 60 61 60 59 58 55 56 53 54 53 53 52 53 53 53 52 51 50 48 47 48 47 47
42 46 47 46 43 42 39 38 41 40 42 42 39 42 43 50 51 55 56 58 57 58 58 60 57 59 56 54 52 52 53 53 53 53 52 43 45 43 44 44 44 45 46 46
41 45 45 40 42 42 37 44 43 40 37 34 42 34 41 50 52 51 57 55 56 58 56 55 55 55 56 55 53 52 52 52 51 52 50 48 50 47 48 49 47 45 45 45
42 40 39 39 43 44 42 43 40 38 35 33 33 31 40 45 46 51 51 54 56 57 54 55 55 54 54 52 52 50 50 49 50 49 52 49 50 52 47 49 45 44 44 45
42 42 43 45 43 44 43 40 36 33 33 27 35 35 47 41 46 48 52 55 56 61 53 53 53 52 51 50 49 48 47 48 47 48 50 48 49 50 44 44 43 42 43 43
38 40 42 44 40 39 40 36 30 27 24 33 35 33 47 48 49 54 55 54 56 53 52 52 51 52 52 52 46 46 45 45 45 46 48 48 48 49 44 43 44 41 42 41
34 36 40 43 45 42 38 40 32 24 29 35 32 30 46 52 50 50 51 51 50 51 50 51 51 50 49 47 46 45 43 42 43 43 45 47 46 48 46 45 45 43 43 43
34 35 39 40 40 44 35 34 41 35 30 26 38 39 49 52 50 49 50 49 51 51 50 49 49 47 46 46 45 43 42 42 42 42 43 43 44 46 45 44 45 44 44 44
42 35 40 39 39 38 40 40 32 28 23 23 33 36 39 48 46 48 46 46 47 43 42 42 43 43 43 44 44 45 43 42 41 41 41 42 42 43 43 40 40 41 42 42
42 38 37 37 36 37 36 34 34 34 34 27 25 33 50 46 45 41 36 38 38 39 39 40 41 42 42 43 43 43 43 42 42 41 40 40 40 41 41 39 40 40 40 40
42 37 32 32 40 41 39 39 39 32 30 33 33 33 48 44 44 44 38 39 38 37 38 39 40 41 41 41 42 42 41 41 41 42 40 40 39 38 38 39 39 38 38 39
39 33 28 29 32 33 33 36 35 34 31 27 25 29 44 44 46 44 34 34 35 36 37 37 38 38 39 39 39 40 40 40 40 40 40 39 38 37 37 38 38 38 38 38
41 33 31 27 33 34 30 30 32 30 23 27 27 28 36 41 33 32 34 34 34 35 36 37 37 37 38 38 38 39 39 40 39 38 38 38 38 38 38 39 39 37 38 38
34 28 32 32 29 29 27 27 28 25 28 23 26 28 35 26 28 31 34 34 33 34 34 35 35 36 38 38 38 38 38 37 37 36 36 36 36 37 38 37 37 37 36 37
30 23 24 20 28 29 26 28 29 29 29 28 28 26 27 30 31 32 33 32 31 32 33 34 35 35 35 35 36 36 37 35 35 34 34 35 34 34 35 36 35 35 35 36
27 23 17 17 25 22 13 21 28 29 22 22 20 20 24 26 29 29 29 30 31 31 32 32 32 33 32 33 33 33 33 34 33 33 33 32 32 32 33 33 34 32 33 34
24 10 8 1 3 -1 22 25 26 24 21 22 22 22 26 27 31 30 32 31 31 32 33 32 32 32 32 32 31 31 30 31 32 32 32 31 30 30 31 30 31 32 33 32
27 22 6 1 -4 14 24 23 21 19 16 20 18 22 24 28 28 27 32 33 31 31 33 32 31 30 30 30 30 28 28 29 29 29 29 28 29 28 28 29 29 29 30 31
24 25 16 -2 1 -4 13 20 24 20 7 17 18 19 20 25 18 24 31 31 30 30 30 29 30 30 29 30 30 27 27 27 27 27 26 27 28 27 26 28 28 28 28 30
0 -3 8 -5 -1 5 20 25 27 5 11 22 23 21 19 20 25 30 30 28 29 29 29 29 28 28 28 28 26 26 26 25 27 26 25 25 25 25 27 27 27 27 26 27
9 -1 -6 -12 -12 -2 23 24 17 23 30 30 27 27 27 29 30 30 30 29 29 27 27 29 26 27 28 27 25 24 23 26 24 23 22 20 19 21 23 26 26 26 25 24
9 15 6 9 8 21 23 24 32 33 29 29 29 30 29 28 28 27 27 27 26 26 27 27 25 24 26 25 23 20 22 22 20 15 14 15 16 18 20 21 24 25 24 23
18 23 17 17 24 26 30 32 33 32 31 32 28 25 24 23 24 23 23 23 24 24 24 24 22 21 21 23 23 20 19 18 9 10 11 12 12 13 16 19 24 24 24 23
21 21 15 19 25 27 29 31 31 29 26 24 22 22 21 21 19 20 20 20 20 20 20 20 18 18 17 19 18 17 15 9 8 9 9 9 10 11 13 16 19 23 26 26
25 23 19 17 28 27 28 27 23 21 19 19 18 17 19 18 16 16 14 16 15 14 15 13 13 12 12 11 10 10 9 7 5 4 6 6 7 8 10 12 14 23 28 31
MSLP
1017.61 1018.30 1018.14 1017.40 1017.41 1017.50 1017.79 1017.94 1017.84 1016.82 1015.92 1015.66 1014.64 1013.60 1013.05 1011.89 1011.25 1009.96 1008.83 1008.28 1008.24 1008.33 1007.59 1007.57 1007.75 1007.95 1008.27 1008.61 1008.96 1009.55 1010.25 1010.54 1011.51 1012.13 1012.68 1013.46 1013.34 1014.09 1014.67 1015.25 1015.19 1016.30 1017.20 1017.37
1018.41 1018.05 1017.28 1017.34 1017.44 1017.79 1017.93 1018.06 1017.52 1016.44 1015.31 1015.76 1014.22 1012.04 1011.64 1010.56 1009.77 1008.77 1008.78 1008.28 1008.08 1007.95 1007.82 1007.46 1007.61 1007.89 1007.92 1007.53 1007.86 1008.29 1008.68 1009.64 1010.17 1010.76 1011.20 1011.77 1012.22 1013.05 1013.45 1014.28 1015.08 1015.35 1016.25 1017.22
1017.57 1016.77 1016.84 1017.50 1017.51 1017.59 1017.72 1017.84 1017.13 1016.71 1016.16 1015.54 1014.51 1011.25 1010.37 1009.26 1008.69 1008.15 1008.07 1007.69 1008.50 1008.13 1007.90 1007.42 1007.89 1007.99 1007.84 1007.79 1007.56 1007.44 1007.46 1007.91 1008.60 1009.47 1010.65 1011.59 1012.06 1012.67 1012.93 1013.08 1013.73 1014.14 1014.72 1015.81
1017.45 1016.51 1016.50 1017.19 1017.52 1017.23 1017.53 1016.15 1016.75 1017.05 1017.36 1016.78 1015.47 1011.44 1009.93 1008.84 1008.50 1008.13 1007.00 1008.14 1007.98 1007.63 1007.72 1007.94 1007.99 1007.95 1007.72 1007.35 1007.03 1007.40 1007.67 1007.86 1008.18 1008.67 1009.40 1009.85 1010.24 1010.93 1010.36 1010.34 1011.59 1012.70 1013.37 1014.08
1016.59 1016.59 1016.76 1016.75 1016.30 1016.54 1016.47 1016.16 1016.77 1017.06 1017.41 1017.14 1016.11 1014.96 1009.81 1008.82 1008.45 1007.58 1007.78 1007.65 1007.61 1007.70 1007.50 1007.83 1008.11 1007.76 1007.26 1006.93 1006.80 1006.91 1006.87 1006.99 1007.52 1008.32 1008.55 1009.15 1009.20 1009.31 1010.00 1010.72 1011.64 1012.53 1012.94 1013.12
1016.60 1016.32 1016.29 1015.79 1015.67 1015.96 1016.20 1016.70 1017.21 1017.74 1017.83 1016.82 1015.31 1014.29 1006.58 1008.40 1007.88 1007.94 1007.75 1007.89 1007.69 1007.64 1007.86 1008.24 1008.41 1007.99 1007.48 1007.10 1006.88 1007.07 1007.21 1007.31 1007.41 1007.28 1008.07 1008.23 1008.34 1008.91 1010.01 1010.38 1010.78 1011.43 1012.22 1012.88
1016.61 1016.08 1015.54 1015.44 1015.84 1016.09 1016.41 1017.37 1017.81 1017.63 1017.42 1015.34 1014.30 1013.46 1007.29 1007.57 1007.62 1007.76 1008.42 1008.67 1008.46 1008.69 1008.39 1007.90 1007.69 1008.12 1008.35 1008.29 1008.36 1007.92 1007.83 1008.01 1008.27 1008.11 1007.92 1007.95 1008.20 1008.40 1008.58 1009.35 1009.80 1010.98 1011.76 1012.19
1016.92 1015.55 1015.53 1015.13 1015.10 1014.83 1015.75 1016.30 1017.01 1016.48 1016.15 1014.61 1014.16 1010.71 1004.26 1007.28 1007.67 1007.93 1008.21 1008.75 1008.65 1008.51 1008.96 1009.02 1009.12 1009.42 1009.56 1009.43 1008.96 1008.21 1008.28 1008.06 1008.09 1007.83 1008.30 1008.84 1008.48 1007.83 1007.84 1008.45 1008.73 1009.44 1009.88 1010.87
1016.18 1014.47 1014.77 1014.74 1014.83 1014.97 1015.57 1015.80 1015.28 1015.44 1015.20 1014.94 1012.37 1009.37 1005.67 1006.90 1007.88 1008.82 1009.19 1009.44 1009.76 1009.98 1010.33 1010.33 1010.24 1010.59 1010.73 1010.60 1009.81 1009.12 1008.77 1008.63 1008.42 1008.06 1008.12 1008.27 1008.45 1008.53 1008.39 1008.16 1008.96 1009.31 1009.57 1009.90
1015.45 1015.20 1014.50 1014.69 1014.92 1015.12 1015.22 1015.47 1015.74 1016.09 1015.85 1013.99 1011.84 1010.46 1007.36 1007.02 1008.66 1009.54 1011.16 1011.79 1012.08 1012.40 1012.95 1012.82 1011.96 1011.41 1011.04 1011.06 1010.79 1010.34 1009.98 1009.25 1008.81 1008.67 1008.37 1007.87 1008.00 1007.91 1008.55 1008.15 1008.34 1008.79 1008.95 1009.40
1015.86 1016.32 1014.14 1015.18 1014.83 1014.96 1015.51 1015.44 1016.00 1015.95 1014.99 1013.38 1011.99 1009.86 1008.49 1009.57 1010.48 1012.05 1013.62 1014.31 1014.52 1014.45 1014.38 1014.09 1014.07 1013.42 1012.86 1012.16 1011.90 1011.31 1010.70 1010.02 1009.30 1008.93 1008.44 1007.97 1007.57 1007.90 1007.39 1007.15 1007.77 1008.29 1008.56 1009.12
1015.98 1016.02 1015.73 1014.58 1014.07 1014.15 1014.42 1014.58 1015.11 1015.38 1013.80 1012.75 1011.85 1009.89 1009.79 1010.46 1011.44 1012.24 1014.31 1015.46 1015.53 1015.84 1015.68 1014.79 1014.42 1014.36 1013.71 1012.81 1012.15 1011.96 1011.67 1011.19 1010.45 1009.61 1008.35 1007.98 1007.62 1007.92 1007.20 1006.72 1006.88 1007.33 1007.89 1008.79
1016.29 1016.25 1015.89 1014.65 1014.56 1015.28 1015.09 1015.13 1015.14 1015.54 1014.98 1013.67 1012.63 1011.31 1011.40 1011.65 1011.90 1012.37 1014.88 1015.90 1016.29 1016.33 1016.10 1015.25 1014.64 1014.29 1013.97 1013.69 1013.05 1012.53 1012.03 1011.64 1011.11 1010.28 1009.20 1008.07 1008.11 1007.63 1006.73 1005.80 1006.49 1006.91 1007.07 1007.62
1017.45 1016.43 1016.47 1015.72 1015.63 1016.19 1016.39 1016.45 1016.52 1016.64 1015.95 1014.54 1014.14 1013.24 1013.24 1013.52 1014.83 1015.47 1015.42 1015.99 1016.02 1016.03 1016.52 1015.82 1014.63 1014.67 1014.19 1013.90 1013.63 1013.00 1012.10 1011.68 1011.59 1011.14 1010.42 1008.57 1008.07 1007.25 1006.69 1005.91 1005.77 1006.18 1006.40 1006.43
1018.97 1017.96 1017.66 1016.92 1017.66 1017.95 1017.68 1017.53 1016.94 1017.02 1016.83 1016.54 1015.43 1015.08 1014.99 1016.15 1016.62 1016.83 1016.98 1016.64 1016.01 1015.89 1016.11 1015.63 1014.63 1014.57 1014.58 1014.02 1013.70 1012.87 1012.33 1011.94 1011.87 1011.96 1011.32 1009.08 1008.23 1007.89 1006.60 1006.06 1005.72 1005.55 1005.73 1005.34
1020.93 1020.27 1019.83 1018.96 1018.77 1018.71 1018.13 1017.52 1016.77 1016.60 1016.27 1015.86 1015.88 1016.36 1017.55 1017.59 1017.42 1017.16 1016.97 1016.94 1016.72 1016.56 1016.26 1015.45 1014.87 1014.75 1014.65 1013.84 1014.01 1013.66 1012.66 1012.23 1012.09 1012.16 1010.42 1008.88 1008.22 1007.49 1006.91 1006.46 1005.77 1005.44 1005.06 1005.06
1021.75 1021.97 1022.09 1020.94 1020.73 1019.96 1018.73 1016.64 1016.24 1016.18 1016.80 1017.10 1017.38 1018.66 1018.37 1017.97 1017.83 1017.51 1017.09 1017.08 1016.77 1016.56 1016.04 1015.55 1015.25 1014.76 1014.54 1014.22 1014.22 1013.93 1012.83 1012.37 1011.92 1010.77 1009.51 1009.52 1008.96 1008.05 1007.09 1006.71 1006.22 1005.72 1005.00 1004.86
1021.63 1022.78 1023.47 1023.64 1022.93 1021.26 1017.87 1017.12 1016.93 1017.30 1018.09 1018.40 1018.66 1018.76 1018.72 1018.38 1017.70 1017.34 1017.06 1016.77 1016.40 1016.12 1015.70 1015.55 1015.34 1015.06 1014.88 1014.51 1013.91 1013.23 1012.66 1011.78 1011.08 1010.34 1009.95 1009.79 1009.42 1008.93 1007.27 1006.58 1006.00 1005.34 1004.75 1004.05
1022.01 1023.31 1024.75 1025.30 1024.44 1020.94 1019.08 1018.21 1018.10 1018.46 1018.80 1018.91 1018.92 1018.76 1018.36 1017.99 1017.53 1016.83 1016.59 1016.16 1016.05 1015.91 1015.57 1015.36 1015.10 1014.73 1014.18 1013.60 1013.17 1012.77 1012.24 1011.81 1011.30 1010.91 1010.78 1010.45 1010.16 1009.07 1007.94 1007.15 1006.11 1005.41 1004.98 1004.03
1022.49 1023.38 1024.61 1025.50 1024.91 1022.53 1019.82 1018.52 1018.26 1018.98 1019.08 1018.53 1018.63 1018.54 1018.20 1017.64 1017.37 1015.99 1015.96 1015.70 1015.54 1015.41 1015.23 1014.91 1014.57 1014.14 1013.83 1013.27 1013.03 1012.77 1012.25 1011.80 1011.37 1010.94 1010.94 1010.43 1009.79 1009.38 1008.27 1007.47 1006.60 1005.35 1004.75 1004.16
1024.18 1024.67 1024.95 1024.98 1024.75 1022.24 1019.37 1018.38 1018.40 1018.83 1018.95 1017.76 1017.82 1017.57 1017.40 1017.23 1016.45 1015.23 1015.17 1015.13 1014.94 1014.75 1014.56 1014.40 1014.13 1013.79 1013.29 1012.91 1012.67 1012.39 1012.05 1011.55 1011.17 1011.04 1010.67 1010.16 1009.58 1009.28 1008.22 1007.44 1006.46 1005.00 1004.48 1004.28
1023.67 1024.35 1025.33 1025.00 1024.25 1021.70 1018.66 1018.26 1018.08 1017.42 1016.86 1016.87 1016.79 1016.59 1016.34 1015.82 1015.27 1014.82 1014.55 1014.55 1014.58 1014.54 1014.20 1013.89 1013.65 1013.05 1012.55 1012.44 1012.31 1011.89 1011.58 1011.28 1011.11 1010.86 1010.38 1009.97 1009.43 1008.58 1007.91 1006.90 1005.56 1004.87 1004.39 1004.16
1022.48 1022.03 1022.48 1022.40 1020.41 1018.96 1018.08 1017.23 1016.43 1016.36 1016.46 1016.04 1016.00 1015.72 1015.70 1015.48 1015.08 1014.97 1014.74 1014.50 1014.48 1014.33 1013.85 1013.47 1013.26 1012.52 1011.92 1011.96 1011.90 1011.35 1010.82 1011.00 1010.84 1010.67 1010.34 1009.91 1009.22 1008.23 1007.32 1006.25 1004.55 1004.17 1003.91 1002.92
1020.46 1020.10 1020.46 1020.16 1018.07 1017.59 1016.56 1016.11 1015.86 1015.72 1015.64 1015.68 1016.00 1016.03 1016.15 1016.07 1015.68 1015.62 1015.29 1014.76 1014.38 1013.99 1013.73 1013.52 1013.07 1012.37 1011.59 1011.55 1011.33 1011.07 1010.84 1010.78 1010.75 1010.56 1010.14 1009.47 1008.65 1007.63 1006.78 1005.63 1004.33 1003.36 1002.86 1001.89
1018.74 1019.01 1018.72 1017.81 1016.58 1016.51 1015.83 1015.65 1015.49 1015.76 1016.23 1016.60 1016.91 1017.09 1017.05 1016.96 1016.42 1016.52 1015.63 1015.12 1014.64 1014.23 1014.07 1013.92 1013.31 1012.49 1011.65 1011.46 1011.16 1011.09 1011.04 1010.94 1010.60 1010.18 1009.58 1008.96 1008.24 1007.24 1005.99 1004.89 1004.11 1002.86 1001.45 1000.98
1017.18 1016.99 1017.35 1016.24 1015.70 1015.84 1015.44 1015.95 1016.56 1016.95 1017.44 1017.80 1017.90 1017.50 1017.52 1017.86 1017.41 1017.17 1016.34 1016.04 1015.55 1014.80 1014.55 1014.27 1013.84 1013.18 1012.32 1012.02 1011.63 1011.53 1011.37 1011.11 1010.41 1009.46 1008.75 1008.06 1007.35 1006.44 1005.45 1004.18 1002.42 1001.57 1000.16 999.33
Wind_Speed
2 4 8 15 13 4 2 4 7 9 14 7 17 18 15 19 16 22 23 20 16 14 16 11 8 7 6 8 12 14 14 16 12 12 12 10 14 12 11 11 15 15 13 15
4 7 15 2 4 7 5 5 11 7 11 4 12 24 21 21 20 22 18 18 15 12 11 11 6 6 8 8 12 13 17 16 16 12 11 7 11 11 10 10 11 14 15 15
9 6 5 6 5 7 5 6 9 10 8 5 9 11 5 5 6 9 11 15 8 15 14 14 7 7 8 9 10 13 15 16 17 16 9 2 3 2 8 11 11 15 17 17
7 4 7 4 9 7 4 9 10 6 4 4 5 17 4 7 7 6 15 3 8 12 6 6 7 7 8 10 7 8 8 12 14 16 14 18 14 12 11 13 12 14 18 19
7 5 3 4 10 7 10 2 2 3 3 4 3 4 1 3 7 12 5 6 6 10 4 10 10 9 7 5 6 6 7 11 12 14 15 13 17 12 5 7 13 14 14 18
7 2 5 7 2 5 3 3 5 4 2 5 8 7 13 5 6 3 3 4 10 11 7 5 7 10 8 7 7 6 5 8 9 14 17 17 18 13 7 9 11 11 11 12
3 5 4 3 2 1 4 5 5 5 1 12 4 5 14 4 8 8 11 8 11 9 7 6 7 9 13 16 11 6 4 5 4 7 12 14 14 13 12 13 12 12 11 12
3 14 8 6 9 9 9 10 6 7 16 20 7 14 21 8 1 4 6 8 7 5 5 8 10 9 9 12 11 10 9 7 4 6 9 9 11 10 10 12 10 11 12 13
5 13 2 4 2 4 4 6 4 6 2 3 13 18 28 8 5 5 4 5 8 10 11 12 13 14 13 13 16 13 11 8 6 6 7 7 8 11 8 8 8 9 10 10
3 12 6 2 3 3 6 2 2 2 3 16 14 17 22 20 8 8 11 16 17 18 19 19 18 19 18 17 17 17 15 11 7 7 7 6 7 7 6 4 9 10 10 11
3 3 16 2 8 8 4 5 2 3 10 17 22 18 17 12 10 15 13 10 11 14 13 13 15 15 14 14 17 17 17 17 16 12 9 7 7 8 8 9 10 10 9 11
9 4 12 10 7 8 10 13 14 14 14 13 18 20 10 10 12 12 10 11 10 11 12 13 14 15 16 18 17 17 17 16 16 15 13 11 9 8 9 9 10 11 11 11
3 5 7 9 1 4 2 3 1 3 3 10 11 7 8 17 24 19 12 8 8 9 11 11 12 14 14 14 15 15 16 16 17 17 15 13 12 9 10 9 10 10 11 12
3 4 9 11 9 8 4 3 3 4 5 11 11 16 21 24 10 15 13 13 9 10 13 11 9 10 11 11 12 13 15 15 17 17 16 13 15 13 12 10 9 11 13 13
3 11 14 11 6 5 7 12 16 16 17 14 22 28 21 4 5 9 9 11 14 15 16 15 13 11 11 12 13 12 11 13 15 16 16 14 13 14 12 10 10 10 12 12
4 4 7 5 11 11 16 20 23 22 23 20 19 13 5 3 5 8 11 9 8 11 15 15 16 14 13 13 13 14 12 11 11 12 14 16 16 15 15 12 10 10 11 11
4 4 2 11 13 10 10 17 19 16 3 1 4 2 4 4 9 6 9 10 8 10 12 13 14 14 13 13 12 12 13 13 12 11 11 14 17 17 16 13 12 8 10 11
5 3 2 5 4 5 5 5 5 2 2 3 5 5 6 9 10 6 9 6 8 12 14 11 11 11 12 11 11 10 12 12 13 14 11 15 16 17 17 16 15 14 7 8
14 8 3 4 6 8 7 2 2 3 5 7 5 5 6 8 6 11 11 5 6 10 11 10 10 11 12 13 10 9 12 11 11 11 12 14 14 15 16 16 15 13 11 9
2 11 6 2 4 7 6 4 3 5 5 8 8 8 9 4 7 13 9 6 9 8 9 10 12 11 10 13 9 9 12 12 12 11 14 13 13 14 14 15 14 10 11 13
3 3 10 2 3 9 8 6 3 6 7 5 5 10 7 7 11 17 7 8 6 8 11 10 10 12 12 10 7 11 12 13 11 11 13 13 13 15 14 13 13 10 9 11
5 4 4 3 3 9 3 2 5 7 13 14 11 12 13 15 15 15 13 10 11 11 14 15 11 13 14 11 9 13 13 11 8 12 12 14 16 13 12 16 12 10 9 10
5 7 6 11 9 6 6 10 18 17 14 18 15 14 10 14 13 10 13 14 13 14 15 13 12 16 16 13 10 13 12 9 11 8 13 15 16 15 14 15 14 11 9 8
5 5 7 7 14 18 19 19 17 14 16 13 6 6 5 9 12 13 14 16 16 16 15 14 15 17 19 15 14 10 9 8 5 11 15 15 15 17 15 11 11 10 9 8
7 5 6 13 20 15 19 16 14 9 5 6 6 6 9 10 14 12 16 18 18 18 16 15 16 17 19 17 16 12 10 6 12 16 16 16 14 14 14 13 11 12 12 11
7 14 10 15 20 15 17 2 5 5 5 7 10 12 10 10 15 15 17 15 17 19 18 18 19 19 20 18 17 15 14 14 16 18 15 13 12 12 12 12 14 21 27 27
Wind_Direction
54 119 195 218 203 157 194 230 254 262 272 309 272 268 258 264 265 262 267 280 277 273 278 266 259 255 221 207 201 201 198 203 188 194 194 201 211 200 202 207 194 190 194 184
58 220 227 100 162 219 235 271 269 275 270 179 278 290 271 248 254 258 267 277 282 292 293 279 297 255 224 229 211 200 207 196 197 199 206 206 204 213 206 198 199 191 187 189
191 218 150 190 228 232 193 222 255 249 330 269 310 272 255 272 238 282 263 247 282 274 289 299 337 289 272 260 231 218 211 200 199 199 189 130 120 127 179 197 192 196 186 185
239 260 178 155 239 161 264 233 251 277 8 268 33 295 179 222 255 273 263 359 274 283 275 295 300 295 275 262 259 239 224 209 204 190 193 202 208 205 216 206 198 192 188 186
245 169 156 172 219 149 228 105 175 169 199 350 334 297 23 137 254 263 313 280 289 269 358 355 330 315 295 294 301 257 216 202 197 200 205 205 215 219 185 197 188 195 193 192
248 329 194 215 178 194 122 81 48 62 57 276 192 190 313 153 200 268 296 346 328 322 0 324 311 328 319 317 323 317 265 228 196 189 206 209 213 209 184 189 188 191 191 193
307 229 250 172 192 88 102 65 308 317 45 257 177 240 240 178 247 314 301 292 272 317 312 316 327 341 338 349 344 322 291 294 240 219 214 215 221 217 199 188 189 185 194 200
266 290 181 186 208 185 183 175 194 253 270 275 132 252 259 193 227 314 278 274 272 316 323 311 334 347 346 341 342 355 343 330 280 208 228 241 225 220 211 202 196 196 197 203
217 261 207 208 142 172 157 184 238 279 340 300 261 268 287 234 356 24 16 24 327 332 349 353 13 22 14 10 8 360 351 330 297 250 230 229 227 235 226 207 211 204 202 198
302 300 189 214 134 256 173 283 281 20 209 249 262 269 268 302 333 351 7 11 7 24 16 5 8 8 8 8 5 6 0 343 316 285 261 237 227 220 229 197 202 201 200 191
105 218 273 286 199 212 261 256 230 287 232 255 265 259 277 314 25 43 48 33 16 9 12 14 4 1 5 9 5 1 360 355 356 332 288 266 247 236 211 195 204 207 199 190
187 212 254 230 231 214 196 227 233 244 252 239 249 247 325 10 356 356 15 27 33 28 10 8 8 358 359 2 360 358 353 352 351 341 332 296 270 243 227 222 210 190 197 202
178 215 276 299 324 33 164 160 110 287 229 250 275 273 354 330 327 343 12 37 31 20 4 360 360 358 356 353 351 352 349 349 345 342 341 332 290 258 250 227 215 206 201 194
202 212 255 264 268 314 234 286 327 287 267 295 271 297 297 303 336 348 359 358 6 9 353 345 357 348 344 346 345 342 345 351 343 337 333 343 332 299 270 251 224 213 207 200
344 264 263 268 313 326 278 279 274 265 264 267 280 279 290 35 8 355 331 325 341 343 344 342 345 340 335 338 336 341 341 344 341 329 324 339 341 324 298 265 243 224 215 209
3 315 346 298 296 287 285 281 274 276 275 267 261 262 341 321 320 320 316 309 316 322 329 331 335 335 333 338 332 328 333 333 329 317 327 342 342 346 337 308 267 235 224 220
208 224 234 270 294 313 290 255 262 267 62 293 288 59 277 258 277 297 302 303 290 309 313 317 319 326 327 325 324 319 329 324 320 330 341 341 339 336 339 331 308 244 224 209
234 114 106 256 48 254 285 46 100 158 136 142 174 211 236 268 281 265 288 271 312 320 318 304 302 299 302 300 307 322 327 328 330 336 341 340 336 326 333 334 325 306 264 219
217 214 251 198 204 307 294 136 100 104 259 211 203 242 252 252 266 274 250 237 274 284 297 288 285 281 292 300 306 315 319 320 323 329 330 329 322 322 326 320 320 312 292 266
76 209 192 125 203 219 245 245 170 107 276 218 201 231 247 268 274 274 217 241 264 267 282 286 292 283 282 291 303 301 308 310 310 320 319 317 324 315 311 312 304 302 293 279
21 11 215 240 260 285 247 226 172 78 263 230 216 241 233 236 255 270 259 252 246 270 283 285 282 281 280 282 280 287 293 293 303 313 308 312 319 312 309 296 296 294 288 278
179 147 212 79 54 286 215 266 173 255 296 291 281 268 280 274 280 263 266 282 287 291 293 292 283 283 288 283 279 278 276 289 304 304 310 312 309 306 301 297 292 284 267 254
274 187 198 184 215 232 217 240 279 285 277 281 281 287 274 270 275 287 294 295 292 285 284 286 286 288 287 285 278 275 282 301 303 310 307 305 302 300 299 299 294 283 261 243
267 207 234 281 254 255 265 273 273 273 274 290 317 322 333 297 297 302 296 292 292 291 293 295 292 286 286 291 287 270 290 306 305 299 300 298 297 298 292 287 287 276 264 253
212 159 215 255 274 277 266 264 275 301 8 8 357 332 315 304 295 299 296 299 299 299 301 299 294 292 291 298 296 300 312 319 300 297 292 289 284 282 285 280 278 275 260 250
207 243 245 258 269 272 277 50 36 7 1 343 327 319 316 320 306 309 298 301 303 304 310 306 301 299 300 304 304 304 305 301 294 289 288 284 284 283 281 283 290 276 276 264